This is the latest recevied weather packets stored in our database for station/object HOWARD. If no packets are shown the sender has not sent any weather packets the latest 10 day(s).
| Time | Temp. | Humidity | Pressure | Rain* | Wind** | Luminosity | Snow |
|---|---|---|---|---|---|---|---|
| 1787900739 | 10° C | 79% | 1018.8 hPa | 0 mm | - | - | - |
| 1787900676 | 10° C | 79% | 1018.8 hPa | 0 mm | - | - | - |
| 1787900076 | 8.33° C | 80% | 1018.7 hPa | 0 mm | - | - | - |
| 1787899477 | 8.89° C | 79% | 1018.7 hPa | 0 mm | - | - | - |
| 1787898876 | 8.89° C | 78% | 1018.7 hPa | 0 mm | - | - | - |
| 1787898276 | 9.44° C | 77% | 1018.6 hPa | 0 mm | - | - | - |
| 1787897786 | 9.44° C | 75% | 1018.5 hPa | 0 mm | - | - | - |
| 1787897677 | 9.44° C | 75% | 1018.5 hPa | 0 mm | - | - | - |
| 1787897077 | 10° C | 74% | 1018.5 hPa | 0 mm | - | - | - |
| 1787896476 | 10° C | 74% | 1018.5 hPa | 0 mm | - | - | - |
| 1787895877 | 10° C | 74% | 1018.5 hPa | 0 mm | - | - | - |
| 1787895276 | 10° C | 74% | 1018.5 hPa | 0 mm | - | - | - |
| 1787894676 | 10° C | 73% | 1019.1 hPa | 0 mm | - | - | - |
| 1787894077 | 10.56° C | 74% | 1019.2 hPa | 0 mm | - | - | - |
| 1787893479 | 10.56° C | 73% | 1019.3 hPa | 0 mm | - | - | - |
| 1787892876 | 10.56° C | - | 1019.3 hPa | 0 mm | - | - | - |
| 1787892277 | 11.11° C | 70% | 1019.3 hPa | 0 mm | - | - | - |
| 1787891972 | 11.11° C | 70% | 1019.4 hPa | 0 mm | - | - | - |
| 1787891676 | 11.11° C | 70% | 1019.4 hPa | 0 mm | - | - | - |
| 1787891076 | 11.67° C | 70% | 1019.4 hPa | 0 mm | - | - | - |
| 1787890477 | 11.67° C | 70% | 1019.3 hPa | 0 mm | - | - | - |
| 1787889876 | 11.67° C | 69% | 1019.2 hPa | 0 mm | - | - | - |
| 1787889284 | 12.22° C | 68% | 1019.1 hPa | 0 mm | - | - | - |
| 1787888677 | 12.22° C | 65% | 1019 hPa | 0 mm | - | - | - |
| 1787888076 | 13.33° C | 63% | 1018.8 hPa | 0 mm | - | - | - |
* Rain latest hour (hover to see other rain measurements)
** Current wind speed in m/s (hover to see current wind gust speed)